User: anonymous
Location: Caltech
(34.1382°N, 118.1253°W)
Time: 14:44:38
(UTC-07:00)
Language:

Cosmos 2333 Rocket - Orbit

View from above orbital plane
View from above orbital plane
View from above satellite
View from above satellite

Ground track
Ground track

The orbit data is extracted from the following two-line orbital elements,

1 24298U 96051B   14261.48709498 -.00000154  00000-0 -57285-4 0  5448
2 24298 070.8655 015.4763 0018116 238.1416 191.7842 14.12462030930249
Epoch (UTC): 18 September 2014 11:41:25
Eccentricity: 0.0018116
inclination: 70.8655°
perigee height: 838 km
apogee height: 864 km
right ascension of ascending node: 15.4763°
argument of perigee: 238.1416°
revolutions per day: 14.12462030
mean anomaly at epoch: 191.7842°
orbit number at epoch: 93024

The dashed part of the orbit path shows where the satellite is in the earth's shadow,  

DLR